2023/10/26 00:00:00, 0.2, 9.5
2023/10/26 00:10:00, 0.3, 9.4
2023/10/26 00:20:00, 0.2, 9.0
2023/10/26 00:30:00, 0.2, 8.9
2023/10/26 00:40:00, 0.2, 9.1
2023/10/26 00:50:00, 0.2, 8.9
2023/10/26 01:00:00, 0.2, 9.2
2023/10/26 01:10:00, 0.2, 8.9
2023/10/26 01:20:00, 0.2, 8.9
2023/10/26 01:30:00, 0.3, 9.0
2023/10/26 01:40:00, 0.3, 8.8
2023/10/26 01:50:00, 0.3, 8.8
2023/10/26 02:00:00, 0.2, 8.7
2023/10/26 02:10:00, 0.2, 8.6
2023/10/26 02:20:00, 0.2, 8.6
2023/10/26 02:30:00, 0.2, 8.2
2023/10/26 02:40:00, 0.2, 8.3
2023/10/26 02:50:00, 0.3, 8.1
2023/10/26 03:00:00, 0.3, 7.9
2023/10/26 03:10:00, 0.3, 8.1
2023/10/26 03:20:00, 0.3, 8.1
2023/10/26 03:30:00, 0.2, 8.0
2023/10/26 03:40:00, 0.3, 8.1
2023/10/26 03:50:00, 0.2, 8.1
2023/10/26 04:00:00, 0.2, 8.2
2023/10/26 04:10:00, 0.2, 8.1
2023/10/26 04:20:00, 0.3, 8.2
2023/10/26 04:30:00, 0.3, 8.0
2023/10/26 04:40:00, 0.3, 7.4
2023/10/26 04:50:00, 0.2, 7.5
2023/10/26 05:00:00, 0.3, 7.2
2023/10/26 05:10:00, 0.3, 7.4
2023/10/26 05:20:00, 0.3, 7.5
2023/10/26 05:30:00, 0.3, 7.3
2023/10/26 05:40:00, 0.3, 7.4
2023/10/26 05:50:00, 0.3, 7.2
2023/10/26 06:00:00, 0.3, 7.1
2023/10/26 06:10:00, 0.3, 7.0
2023/10/26 06:20:00, 0.2, 7.1
2023/10/26 06:30:00, 0.3, 7.1
2023/10/26 06:40:00, 0.3, 7.3
2023/10/26 06:50:00, 0.2, 7.5
2023/10/26 07:00:00, 0.2, 7.5
2023/10/26 07:10:00, 0.3, 7.5
2023/10/26 07:20:00, 0.3, 7.6
2023/10/26 07:30:00, 0.3, 7.6
2023/10/26 07:40:00, 0.3, 7.5
2023/10/26 07:50:00, 0.3, 8.0
2023/10/26 08:00:00, 0.3, 8.3
2023/10/26 08:10:00, 0.3, 8.7
2023/10/26 08:20:00, 0.3, 8.9
2023/10/26 08:30:00, 0.2, 9.0
2023/10/26 08:40:00, 0.3, 9.3
2023/10/26 08:50:00, 0.2, 9.6
2023/10/26 09:00:00, 0.3, 9.9
2023/10/26 09:10:00, 0.2,10.1
2023/10/26 09:20:00, 0.3,11.1
2023/10/26 09:30:00, 0.3,12.1
2023/10/26 09:40:00, 0.2,13.1
2023/10/26 09:50:00, 0.2,13.6
2023/10/26 10:00:00, 0.2,14.7
2023/10/26 10:10:00, 0.3,15.6
2023/10/26 10:20:00, 0.4,16.4
2023/10/26 10:30:00, 0.2,17.4
2023/10/26 10:40:00, 0.2,18.1
2023/10/26 10:50:00, 0.4,19.0
2023/10/26 11:00:00, 0.4,19.9
2023/10/26 11:10:00, 0.3,20.5
2023/10/26 11:20:00, 0.4,21.1
2023/10/26 11:30:00, 0.4,21.6
2023/10/26 11:40:00, 0.4,22.3
2023/10/26 11:50:00, 0.3,22.7
2023/10/26 12:00:00, 0.2,23.1
2023/10/26 12:10:00, 0.2,23.7
2023/10/26 12:20:00, 0.3,23.7
2023/10/26 12:30:00, 0.2,23.9
2023/10/26 12:40:00, 0.2,23.5
2023/10/26 12:50:00, 0.2,24.0
2023/10/26 13:00:00, 0.2,24.2
2023/10/26 13:10:00, 0.2,24.1
2023/10/26 13:20:00, 0.2,24.5
2023/10/26 13:30:00, 0.2,24.2
2023/10/26 13:40:00, 0.2,24.3
2023/10/26 13:50:00, 0.2,24.4
2023/10/26 14:00:00, 0.1,24.3
2023/10/26 14:10:00, 0.2,26.8
2023/10/26 14:20:00, 0.2,26.9
2023/10/26 14:30:00, 0.1,22.6
2023/10/26 14:40:00, 0.1,21.7
2023/10/26 14:50:00, 0.1,25.4
2023/10/26 15:00:00, 0.1,27.4
2023/10/26 15:10:00, 0.1,24.9
2023/10/26 15:20:00, 0.1,25.4
2023/10/26 15:30:00, 0.1,26.7
2023/10/26 15:40:00, 0.1,24.0
2023/10/26 15:50:00, 0.1,23.4
2023/10/26 16:00:00, 0.1,20.4
2023/10/26 16:10:00, 0.1,19.8
2023/10/26 16:20:00, 0.1,19.3
2023/10/26 16:30:00, 0.1,18.3
2023/10/26 16:40:00, 0.1,17.5
2023/10/26 16:50:00, 0.1,17.6
2023/10/26 17:00:00, 0.1,16.7
2023/10/26 17:10:00, 0.1,15.7
2023/10/26 17:20:00, 0.1,15.5
2023/10/26 17:30:00, 0.1,14.8
2023/10/26 17:40:00, 0.1,14.1
2023/10/26 17:50:00, 0.2,13.9
2023/10/26 18:00:00, 0.2,13.7
2023/10/26 18:10:00, 0.2,13.2
2023/10/26 18:20:00, 0.2,12.8
2023/10/26 18:30:00, 0.2,12.4
2023/10/26 18:40:00, 0.2,12.0
2023/10/26 18:50:00, 0.2,11.7
2023/10/26 19:00:00, 0.3,11.5
2023/10/26 19:10:00, 0.3,11.4
2023/10/26 19:20:00, 0.2,11.2
2023/10/26 19:30:00, 0.3,10.9
2023/10/26 19:40:00, 0.3,10.8
2023/10/26 19:50:00, 0.3,10.6
2023/10/26 20:00:00, 0.2,10.3
2023/10/26 20:10:00, 0.3,10.2
2023/10/26 20:20:00, 0.3,10.0
2023/10/26 20:30:00, 0.3, 9.8
2023/10/26 20:40:00, 0.3, 9.7
2023/10/26 20:50:00, 0.3, 9.7
2023/10/26 21:00:00, 0.4, 9.6
2023/10/26 21:10:00, 0.4, 9.3
2023/10/26 21:20:00, 0.4, 9.3
2023/10/26 21:30:00, 0.3, 9.3
2023/10/26 21:40:00, 0.3, 9.1
2023/10/26 21:50:00, 0.3, 8.9
2023/10/26 22:00:00, 0.3, 8.9
2023/10/26 22:10:00, 0.3, 8.7
2023/10/26 22:20:00, 0.3, 8.7
2023/10/26 22:30:00, 0.3, 8.5
2023/10/26 22:40:00, 0.3, 8.6
2023/10/26 22:50:00, 0.3, 8.5
2023/10/26 23:00:00, 0.3, 8.3
2023/10/26 23:10:00, 0.3, 8.4
2023/10/26 23:20:00, 0.3, 8.2
2023/10/26 23:30:00, 0.3, 7.9
2023/10/26 23:40:00, 0.3, 8.1
2023/10/26 23:50:00, 0.3, 8.1
